Flag for Canada Weather past 2 weeks in Eureka, Nunavut, Canada

Now
21 °F

Passing clouds.


Feels Like: 21 °F
Forecast: N/A
Wind: No wind

Location: Eureka

Current Time: May 24, 2015 at 5:41:34 PM

Latest Report: May 24, 2015 at 4:00 PM


Visibility: 15 mi

Pressure: 29.89 "Hg

Humidity: 63%

Dew point: 10 °F

Location of EurekaLocation

Historic Weather in Eureka — Graph

°F

Eureka temperature yesterday

Maximum temperature yesterday: 18 °F (at 8:00 PM)
Minimum temperature yesterday: 9 °F (at 3:00 AM)
Average temperature yesterday: 12 °F

Past Weeks' High & Low Weather Summary

 TemperatureHumidityPressure
High21 °F (May 18, 2:00 PM)86% (May 18, 5:00 AM)30.28 "Hg (May 18, 5:00 AM)
Low0 °F (May 10, 1:00 AM)52% (May 15, 4:00 PM)29.53 "Hg (May 23, 6:00 AM)
Average9 °F70%29.92 "Hg
* Reported May 9 4:00 PM — May 24 4:00 PM, Eureka, Weather by CustomWeather, © 2015

Note: Actual official high and low records may vary slightly from our data, if they occured in-between our weather recording intervals... More about our weather records

Advertising

Eureka weather history for previous 24 hours

 ConditionsComfort  
Time TempWeatherWind HumidityBarometerVisibility
4:00 PM
Sun, May 24
21 °FPassing clouds.No wind63%29.89 "Hg15 mi
3:00 PM19 °FPassing clouds.3 mph68%29.90 "Hg15 mi
2:00 PM19 °FPassing clouds.6 mph58%29.90 "Hg15 mi
1:00 PM18 °FPassing clouds.2 mph62%29.90 "Hg15 mi
12:00 PM18 °FPassing clouds.3 mph62%29.90 "Hg15 mi
11:00 AM16 °FPassing clouds.3 mph67%29.91 "Hg15 mi
10:00 AM14 °FPassing clouds.6 mph67%29.90 "Hg15 mi
9:00 AM14 °FPassing clouds.No wind67%29.91 "Hg15 mi
8:00 AM12 °FPassing clouds.3 mph67%29.90 "Hg15 mi
2:00 AM14 °FScattered clouds.18 mph57%29.85 "Hg15 mi
10:00 PM
Sat, May 23
14 °FScattered clouds.25 mph62%29.78 "Hg15 mi
9:00 PM14 °FPartly sunny.25 mph62%29.76 "Hg15 mi
8:00 PM18 °FPartly sunny.22 mph53%29.75 "Hg15 mi
7:00 PM16 °FLow level haze.24 mph53%29.74 "Hg15 mi
6:00 PM16 °FLow level haze.26 mph62%29.70 "Hg15 mi
5:00 PM16 °FLow level haze.25 mph57%29.68 "Hg15 mi
Weather by CustomWeather, © 2015

See weather overviewHow to use our weather pages